Aérodrome :
LOGIN :

S'inscrire | Disclaimer

   EN    FR    IT 

 










Légende :    VFR   VFR Marginal   IFR   IFR Intensif   IFR Très Intensif
Visi : 
Plafond : 
>= 8 km
>= 3000ft
5 à 8 km
1000 à 3000 ft
1500m à 5 km
500 à 1000 ft
800 à 1500m
200 à 500 ft
< 800m
< 200 ft
Symboles :   Orages  Brouillard  Fortes neiges  Fortes précipitations  Vent > 20 kt
SIGMETs :   Divers  Orages  Givrage  Turbulence  Onde Orograph.  Cendres Volcan.







- Altitude de l'aérodrome : 433 ft
- Code IATA : CCF
- Voir les cartes d'approche


LFMK - Carcassonne

DERNIER METAR :
  • 180300Z AUTO 27011KT 9999 FEW029 05/03 Q1019 NOSIG

METARs EXPIRÉS :
  • 180230Z AUTO 26009KT 9999 FEW016 SCT026 BKN034 05/03 Q1019 NOSIG
  • 180200Z AUTO 28008KT 9999 BKN014 BKN024 BKN031 04/03 Q1019
  • 180130Z AUTO 28008KT 9999 BKN018 04/03 Q1019
  • 180100Z AUTO 28009KT 9999 SCT021 04/03 Q1019
  • 180030Z AUTO 27008KT 9999 BKN023 04/03 Q1019

TAF TAF LFMK
Valide du 18 à 03h jusqu'au 19 à 03h UTC


180200Z 1803/1903 28010KT 9999 SCT020
TEMPO 1803/1807 BKN018
BECMG 1815/1818 BKN015
Pas de NOTAMs connus pour ce terrain.



MET'MAP, la Météo Aéronautique d'un coup d'oeil ! - Copyright ORBIFLY Décembre 2007 - Disclaimer

ORBIFLY MET'MAP TEAM :

Programmation & Développement : Alexandra Zaïnal
Conception & Développement : Baudouin d'Aumeries
Co-Programmation & Développement : Marc-Olivier Méhu
Soutien technique & logistique : Manuel Goepfert

Contact : metmap@orbifly.com




SOURCES & CREDITS :

   NOAA